Location: Alafon
(8.4500°N, 4.2333°E)
Time: 13:52:33
(UTC+00:00)

Vanguard 1 Rocket - Pass Details

Date: 28 July 2021
Orbit: 650 x 4226 km, 34.3° (Epoch: 27 September)

Event Time Altitude Azimuth Distance (km) Brightness Sun altitude
Rises 19:08:14 0° 293° (WNW) 2,949 12.0 -15.5°
Reaches altitude 10° 19:10:27 10° 286° (WNW) 2,051 10.6 -16.0°
Maximum altitude 19:14:40 44° 213° (SSW) 1,015 7.7 -17.0°
Enters shadow 19:18:03 21° 151° (SSE) 1,880 8.6 -17.8°
